Date,TemperatureHighF,TemperatureAvgF,TemperatureLowF,DewpointHighF,DewpointAvgF,DewpointLowF,HumidityHigh,HumidityAvg,HumidityLow,PressureMaxIn,PressureMinIn,WindSpeedMaxMPH,WindSpeedAvgMPH,GustSpeedMaxMPH,PrecipitationSumIn
2013-1-1,26.2,15.9,5.4,14.0,9.7,1.0,88,77,57,30.48,29.94,5,1,10,0.08
2013-1-2,23.1,7.2,-6.8,7.0,-0.3,-11.0,88,73,45,30.68,30.47,4,1,6,0.01
2013-1-3,23.8,5.6,-6.6,6.0,-2.5,-11.0,85,71,43,30.81,30.68,3,0,5,0.00
2013-1-4,24.8,5.2,-11.6,3.0,-4.2,-17.0,86,67,34,30.79,30.61,3,0,7,0.01
2013-1-5,30.5,10.4,-3.2,8.0,0.6,-8.0,86,67,37,30.79,30.66,3,0,5,0.01
2013-1-6,35.0,15.4,-3.6,11.0,3.8,-8.0,85,63,36,30.80,30.46,3,0,5,0.01
2013-1-7,33.3,19.0,7.1,11.0,6.3,-1.0,82,59,38,30.45,30.19,5,1,13,0.00
2013-1-8,38.7,18.7,3.8,12.0,6.8,-1.0,85,63,33,30.55,30.25,4,1,10,0.00
2013-1-9,42.1,22.4,9.9,16.0,9.7,5.0,82,61,32,30.68,30.40,5,1,5,0.00
2013-1-10,46.3,24.2,6.0,16.0,11.1,1.0,86,61,25,30.39,29.88,8,0,15,0.00
2013-1-11,38.4,21.5,2.3,22.0,5.9,-8.0,87,52,33,30.01,29.56,25,7,43,0.00
2013-1-12,20.9,5.8,-6.6,-1.0,-6.6,-13.0,77,59,32,30.34,30.02,7,1,9,0.00
2013-1-13,21.5,8.4,-3.9,0.0,-4.5,-11.0,76,57,38,30.42,30.30,4,1,8,0.00
2013-1-14,18.9,10.9,1.3,11.0,2.8,-9.0,85,70,53,30.36,30.23,7,0,8,0.00
2013-1-15,19.0,6.5,-2.4,3.0,-2.7,-8.0,92,68,36,30.74,30.34,5,1,9,0.00
2013-1-16,35.6,15.9,0.2,13.0,4.7,-5.0,83,64,38,30.84,30.66,4,0,6,0.01
2013-1-17,42.4,20.5,2.7,19.0,10.6,-2.0,92,69,36,30.83,30.66,5,1,6,0.00
2013-1-18,41.3,20.1,5.3,19.0,11.3,2.0,89,71,40,30.66,30.47,4,0,5,0.00
2013-1-19,44.0,21.9,5.6,16.0,9.7,2.0,91,63,30,30.65,30.53,3,0,8,0.00
2013-1-20,40.6,20.1,3.8,15.0,7.3,-1.0,83,60,33,30.59,30.41,6,0,7,0.00
2013-1-21,43.9,23.0,8.2,13.0,8.2,2.0,79,56,28,30.57,30.42,4,0,6,0.00
2013-1-22,48.9,27.0,11.2,15.0,9.0,5.0,78,51,22,30.53,30.40,3,0,5,0.00
2013-1-23,49.1,27.9,8.9,14.0,7.5,1.0,70,45,21,30.59,30.46,5,1,6,0.00
2013-1-24,52.3,34.2,16.5,23.0,15.2,5.0,65,48,28,30.48,30.25,11,2,16,0.00
2013-1-25,48.8,38.3,30.9,34.0,29.3,22.0,84,71,56,30.33,30.13,5,1,9,0.00
2013-1-26,43.1,37.6,32.8,39.0,33.6,29.0,93,86,71,30.17,29.86,11,1,23,0.19
2013-1-27,47.7,39.1,34.4,35.0,32.9,29.0,91,79,57,29.90,29.83,9,2,17,0.01
2013-1-28,46.2,36.0,26.1,31.0,29.2,24.0,93,78,52,29.86,29.63,19,4,24,0.00
2013-1-29,26.0,20.2,9.9,24.0,16.5,5.0,91,85,76,30.09,29.61,8,1,14,0.00
2013-1-30,28.6,16.8,1.8,19.0,9.3,-4.0,80,73,59,30.44,30.10,11,2,15,0.08
2013-1-31,40.9,27.9,18.1,25.0,19.6,14.0,84,72,48,30.45,30.33,3,1,6,0.29
2013-2-1,45.8,30.1,18.9,24.0,18.6,14.0,82,64,37,30.37,30.24,8,1,11,0.00
2013-2-2,48.5,31.4,18.6,23.0,16.6,10.0,87,58,21,30.47,30.37,6,1,9,0.00
2013-2-3,42.7,31.5,20.8,21.0,17.0,12.0,73,56,38,30.41,30.06,8,0,14,0.00
2013-2-4,49.6,33.2,20.1,23.0,18.9,15.0,83,59,29,30.14,30.00,5,1,8,0.00
2013-2-5,53.7,34.4,19.7,21.0,18.1,15.0,81,55,25,30.17,30.02,4,1,7,0.00
2013-2-6,50.2,37.1,25.4,25.0,20.3,15.0,69,52,34,30.04,29.82,12,1,15,0.00
2013-2-7,48.5,35.6,24.8,25.0,21.4,18.0,83,59,31,30.16,29.95,6,1,9,0.00
2013-2-8,44.6,34.1,24.6,24.0,20.0,17.0,76,58,39,30.16,29.79,12,2,15,0.00
2013-2-9,42.0,29.2,21.3,22.0,15.9,6.0,87,61,24,29.77,29.49,18,5,33,0.00
2013-2-10,35.0,25.0,20.6,18.0,13.9,11.0,76,63,41,30.07,29.77,11,4,20,0.00
2013-2-11,33.9,25.3,18.1,20.0,13.0,7.0,87,62,34,30.10,29.95,18,2,22,0.00
2013-2-12,32.6,21.4,11.8,16.0,9.0,5.0,87,62,31,30.10,29.93,9,2,12,0.11
2013-2-13,41.7,23.7,8.1,15.0,10.3,4.0,83,59,32,30.16,29.98,6,1,10,0.00
2013-2-14,43.3,27.1,13.7,18.0,12.7,9.0,85,58,30,30.20,30.04,9,1,13,0.00
2013-2-15,40.3,28.2,19.3,21.0,11.6,6.0,79,53,26,30.38,30.19,11,2,18,0.00
2013-2-16,48.1,29.9,13.6,14.0,9.4,4.0,68,45,24,30.44,30.16,7,1,13,0.00
2013-2-17,52.3,35.1,19.7,13.0,9.2,4.0,65,38,16,30.16,29.63,10,1,17,0.00
2013-2-18,41.9,31.8,24.4,12.0,7.6,4.0,51,37,22,30.06,29.64,13,3,22,0.00
2013-2-19,52.3,31.8,12.5,27.0,6.6,-6.0,80,37,20,30.07,29.70,15,2,20,0.00
2013-2-20,41.7,30.6,20.1,30.0,24.5,16.0,92,79,46,29.70,29.32,11,2,20,0.15
2013-2-21,35.4,25.6,13.0,25.0,19.0,10.0,93,77,59,29.86,29.47,18,3,21,0.13
2013-2-22,34.9,26.7,20.4,25.0,18.4,13.0,86,71,49,29.97,29.81,9,2,18,0.01
2013-2-23,40.8,27.3,10.7,17.0,13.1,7.0,85,58,33,30.06,29.69,13,1,14,0.00
2013-2-24,35.9,28.3,23.6,23.0,14.2,6.0,86,57,37,29.78,29.54,16,3,25,0.00
2013-2-25,38.8,27.0,14.0,10.0,8.7,6.0,71,48,27,30.04,29.79,10,3,16,0.00
2013-2-26,35.9,26.5,17.5,18.0,8.6,0.0,85,50,25,30.06,29.70,16,4,29,0.00
2013-2-27,37.3,22.6,7.7,14.0,7.2,2.0,86,56,24,30.32,30.07,5,1,8,0.02
2013-2-28,41.5,25.3,9.2,10.0,5.3,1.0,69,46,21,30.40,30.27,7,1,12,0.00
2013-3-1,48.0,32.7,19.2,18.0,13.5,8.0,64,47,30,30.39,30.24,9,2,15,0.00
2013-3-2,56.9,38.9,20.7,22.0,18.5,14.0,77,48,24,30.38,30.09,4,1,10,0.00
2013-3-3,58.0,44.1,30.8,24.0,19.6,15.0,66,40,23,30.09,29.66,13,3,20,0.00
2013-3-4,49.3,41.7,31.4,25.0,21.6,17.0,63,46,34,29.95,29.57,15,4,22,0.00
2013-3-5,55.5,36.6,19.0,18.0,11.6,3.0,75,41,12,30.20,29.96,8,1,10,0.00
2013-3-6,58.6,43.0,26.9,25.0,19.8,13.0,63,41,27,30.12,29.80,11,2,19,0.00
2013-3-7,63.4,47.5,33.4,21.0,17.5,11.0,53,33,14,30.09,29.83,11,3,19,0.00
2013-3-8,56.9,40.9,30.9,33.0,23.3,17.0,93,54,24,29.98,29.75,17,2,28,0.01
2013-3-9,31.9,26.6,21.9,30.0,23.0,19.0,93,86,75,30.21,29.80,13,2,16,0.07
2013-3-10,37.1,27.5,19.7,23.0,19.1,16.0,92,72,48,30.43,30.22,10,2,12,0.32
2013-3-11,50.8,34.4,17.2,26.0,20.7,14.0,89,61,31,30.46,29.99,10,2,17,0.02
2013-3-12,56.1,38.8,25.9,27.0,23.3,20.0,85,57,28,30.30,30.05,6,1,11,0.00
2013-3-13,60.2,43.7,29.7,29.0,25.0,23.0,77,51,27,30.37,30.23,9,2,11,0.00
2013-3-14,65.8,47.4,30.4,27.0,22.7,19.0,70,42,19,30.37,30.19,7,1,13,0.00
2013-3-15,68.9,48.2,31.8,25.0,20.7,15.0,64,38,14,30.21,29.91,8,1,21,0.00
2013-3-16,61.8,48.7,37.3,37.0,25.1,19.0,89,42,24,29.90,29.66,12,2,24,0.12
2013-3-17,56.1,42.2,32.2,37.0,26.1,10.0,92,60,20,29.85,29.65,23,4,27,0.01
2013-3-18,53.5,40.6,28.8,21.0,12.6,6.0,54,34,16,30.03,29.85,19,4,24,0.00
2013-3-19,50.5,40.0,28.0,20.0,12.5,5.0,54,33,22,30.22,30.00,12,2,15,0.00
2013-3-20,55.2,40.3,24.0,25.0,19.7,16.0,71,46,26,30.29,29.92,14,2,19,0.00
2013-3-21,58.3,47.3,36.0,29.0,21.3,13.0,55,38,18,29.91,29.51,22,6,32,0.00
2013-3-22,52.7,41.8,24.4,18.0,12.7,6.0,56,32,19,29.76,29.61,15,4,24,0.00
2013-3-23,37.0,28.3,13.5,15.0,4.8,-7.0,76,39,19,30.20,29.67,16,5,30,0.00
2013-3-24,41.3,23.4,5.3,10.0,3.6,0.0,86,50,19,30.38,30.18,17,3,36,0.00
2013-3-25,44.6,29.2,8.9,8.0,3.8,0.0,73,39,17,30.40,30.28,9,2,13,0.00
2013-3-26,57.5,40.1,21.7,18.0,11.1,4.0,52,32,20,30.36,30.02,12,2,22,0.00
2013-3-27,63.5,49.4,33.0,19.0,14.0,9.0,42,26,14,30.07,29.93,11,2,22,0.00
2013-3-28,64.9,49.7,35.2,20.0,14.0,9.0,40,25,15,30.25,29.97,13,3,19,0.00
2013-3-29,63.5,46.5,33.4,35.0,20.4,12.0,58,38,20,30.32,30.20,10,2,17,0.01
2013-3-30,67.6,49.6,30.0,28.0,22.9,19.0,73,39,18,30.37,30.14,10,2,19,0.00
2013-3-31,64.5,51.3,33.0,30.0,25.2,17.0,74,39,19,30.21,30.03,11,3,21,0.00
2013-4-1,65.2,52.0,36.1,28.0,20.6,14.0,58,31,14,30.15,29.96,12,3,18,0.00
2013-4-2,60.8,46.9,35.6,21.0,16.7,9.0,48,31,13,30.11,29.88,16,3,23,0.00
2013-4-3,54.1,41.1,31.7,29.0,25.0,19.0,75,55,32,30.39,30.12,9,1,13,0.00
2013-4-4,65.5,47.7,29.0,27.0,20.9,15.0,75,40,15,30.46,30.26,8,1,12,0.00
2013-4-5,68.6,53.4,37.3,24.0,18.4,13.0,42,27,16,30.28,29.90,17,4,27,0.00
2013-4-6,66.6,52.3,35.0,29.0,23.7,19.0,62,35,21,30.06,29.91,15,3,22,0.00
2013-4-7,66.1,53.4,39.9,27.0,22.0,16.0,52,31,18,30.00,29.81,14,4,22,0.00
2013-4-8,68.6,53.1,38.7,26.0,21.1,17.0,47,30,17,29.84,29.44,22,4,32,0.00
2013-4-9,49.9,39.2,30.1,31.0,24.7,15.0,90,60,28,30.00,29.42,14,4,24,0.04
2013-4-10,40.4,33.7,29.9,30.0,24.1,18.0,92,70,45,30.22,30.00,14,4,17,0.03
2013-4-11,55.9,36.9,19.7,35.0,22.3,16.0,87,60,29,30.28,30.08,13,2,19,0.03
2013-4-12,60.0,44.4,31.3,36.0,26.6,18.0,92,57,21,30.15,30.01,10,2,19,0.00
2013-4-13,63.9,49.5,29.1,25.0,19.5,15.0,66,34,18,30.14,29.74,14,5,24,0.00
2013-4-14,62.0,52.0,45.3,26.0,23.8,21.0,43,34,25,29.74,29.65,23,7,28,0.00
2013-4-15,68.3,54.3,38.1,25.0,22.1,16.0,52,30,16,29.82,29.65,19,5,29,0.00
2013-4-16,71.3,58.6,43.3,24.0,18.7,10.0,32,22,15,29.83,29.61,18,8,30,0.00
2013-4-17,56.8,41.6,27.0,30.0,21.2,7.0,91,52,16,30.04,29.62,14,4,23,0.02
2013-4-18,34.7,26.3,19.9,21.0,15.6,7.0,86,65,41,30.62,30.05,9,3,14,0.03
2013-4-19,54.2,35.0,11.9,11.0,7.3,2.0,70,36,17,30.73,30.34,14,3,19,0.01
2013-4-20,54.0,44.7,36.9,30.0,18.2,7.0,57,35,24,30.33,30.00,12,2,23,0.02
2013-4-21,64.7,45.7,27.3,27.0,18.1,6.0,73,39,14,30.35,30.17,17,3,22,0.00
2013-4-22,70.7,55.7,36.0,23.0,18.1,12.0,43,24,14,30.22,29.84,21,5,28,0.00
2013-4-23,61.0,46.4,28.3,34.0,19.4,2.0,83,37,13,30.22,29.80,18,5,26,0.02
2013-4-24,62.5,42.2,20.1,15.0,8.0,3.0,51,28,12,30.46,30.25,12,2,22,0.00
2013-4-25,66.1,48.3,37.5,40.0,24.5,12.0,88,42,25,30.35,30.02,17,2,28,0.05
2013-4-26,62.1,48.0,37.9,38.0,32.5,25.0,92,60,25,30.41,30.15,11,2,22,0.03
2013-4-27,67.2,50.3,32.1,29.0,23.8,17.0,71,40,18,30.44,30.22,7,2,14,0.00
2013-4-28,74.2,55.4,33.4,22.0,16.3,11.0,48,24,11,30.26,29.97,9,2,17,0.00
2013-4-29,76.4,59.4,39.5,25.0,18.2,12.0,35,21,12,30.01,29.76,13,2,22,0.00
2013-4-30,77.5,62.1,41.5,25.0,18.8,14.0,34,20,12,29.85,29.69,17,4,26,0.00
2013-5-1,72.2,58.5,35.9,29.0,21.4,12.0,48,25,17,30.23,29.79,21,6,25,0.00
2013-5-2,53.8,38.2,21.2,14.0,8.3,0.0,58,33,13,30.66,30.25,10,2,19,0.00
2013-5-3,63.6,43.1,22.5,16.0,10.5,7.0,54,30,12,30.66,30.22,8,1,21,0.00
2013-5-4,70.0,52.3,33.7,19.0,13.5,7.0,36,23,11,30.25,30.00,14,4,19,0.00
2013-5-5,65.5,52.6,35.4,31.0,20.5,12.0,45,29,20,30.23,30.08,18,4,21,0.00
2013-5-6,54.7,46.5,39.9,44.0,33.0,19.0,90,62,38,30.22,30.02,12,2,28,0.29
2013-5-7,67.3,50.5,35.2,41.0,33.5,27.0,93,58,24,30.24,30.05,15,2,28,0.01
2013-5-8,61.9,49.8,35.8,37.0,26.7,17.0,86,46,19,30.16,30.02,17,3,22,0.00
2013-5-9,61.6,47.0,32.7,37.0,25.9,20.0,66,46,22,30.29,30.14,10,2,19,0.00
2013-5-10,61.6,50.0,35.6,33.0,30.0,28.0,76,48,29,30.42,30.24,12,2,22,0.00
2013-5-11,66.6,50.1,35.5,39.0,31.4,27.0,83,53,24,30.49,30.38,13,2,20,0.01
2013-5-12,73.0,55.8,38.9,35.0,31.3,28.0,71,43,21,30.47,30.25,12,2,17,0.00
2013-5-13,77.9,59.9,42.3,35.0,30.9,25.0,55,35,19,30.34,30.16,8,1,13,0.00
2013-5-14,76.8,59.6,43.3,39.0,32.9,27.0,58,39,19,30.18,29.99,9,1,17,0.00
2013-5-15,74.7,58.6,44.8,42.0,38.7,36.0,72,50,27,30.04,29.91,9,2,18,0.01
2013-5-16,78.8,61.2,40.7,36.0,26.7,15.0,72,34,13,30.07,29.88,15,3,22,0.00
2013-5-17,78.2,64.7,47.9,25.0,19.5,15.0,27,19,11,30.01,29.85,13,3,20,0.00
2013-5-18,71.3,58.6,46.6,31.0,22.8,14.0,39,26,17,29.95,29.81,16,3,25,0.00
2013-5-19,65.1,53.8,45.3,31.0,26.4,15.0,52,36,16,30.00,29.86,18,4,26,0.00
2013-5-20,64.1,49.6,38.2,37.0,28.0,24.0,63,45,23,30.13,29.96,16,3,23,0.00
2013-5-21,71.9,53.9,35.5,33.0,26.2,19.0,71,39,16,30.21,29.98,14,3,22,0.00
2013-5-22,78.7,63.9,42.8,27.0,21.7,18.0,39,21,12,30.04,29.82,15,3,26,0.00
2013-5-23,84.9,68.8,49.2,41.0,25.2,17.0,46,21,9,29.95,29.79,21,5,27,0.00
2013-5-24,81.2,67.7,51.7,44.0,34.8,20.0,63,35,12,29.98,29.87,18,5,26,0.00
2013-5-25,82.5,68.7,51.0,41.0,29.3,17.0,55,27,11,29.99,29.83,16,4,27,0.00
2013-5-26,80.3,66.7,50.7,26.0,18.6,12.0,29,17,10,29.98,29.83,12,3,19,0.00
2013-5-27,75.6,63.1,49.5,21.0,14.3,9.0,21,15,11,29.93,29.79,16,4,21,0.00
2013-5-28,77.8,63.1,47.5,23.0,15.1,9.0,27,16,9,29.87,29.62,17,3,27,0.00
2013-5-29,70.1,59.5,46.5,34.0,23.0,14.0,45,26,14,29.78,29.61,18,5,27,0.00
2013-5-30,74.1,59.4,43.4,28.0,20.2,13.0,37,23,13,29.93,29.78,20,5,29,0.00
2013-5-31,76.3,61.5,41.9,30.0,17.7,6.0,39,20,9,30.05,29.86,21,5,29,0.00
2013-6-1,79.2,59.3,36.1,28.0,14.8,6.0,32,19,8,30.17,30.05,9,2,18,0.00
2013-6-2,81.5,63.8,46.4,37.0,30.4,23.0,43,30,17,30.17,29.89,11,2,23,0.00
2013-6-3,83.6,66.4,48.2,45.0,33.0,25.0,53,32,14,29.97,29.79,16,4,30,0.00
2013-6-4,60.5,59.5,58.4,27.0,26.1,26.0,29,28,27,29.91,29.90,5,2,9,0.00
2013-6-5,81.1,68.2,50.9,40.0,32.6,26.0,41,28,15,29.95,29.83,20,4,25,0.00
2013-6-6,81.2,62.8,47.6,46.0,35.4,29.0,63,38,18,30.04,29.86,11,2,25,0.04
2013-6-7,77.0,61.2,46.0,45.0,37.7,31.0,68,44,22,30.09,29.90,16,2,27,0.01
2013-6-8,85.1,65.4,48.0,45.0,37.5,32.0,59,38,17,29.97,29.82,16,3,23,0.00
2013-6-9,89.7,71.8,51.9,47.0,39.2,28.0,58,35,11,30.00,29.85,13,2,17,0.00
2013-6-10,91.9,76.8,58.2,47.0,37.4,29.0,54,28,12,30.21,20.16,15,2,23,0.00
2013-6-11,91.2,77.3,62.9,32.0,25.7,15.0,26,16,8,20.29,20.16,15,4,24,0.00
2013-6-12,91.3,76.1,56.1,39.0,26.6,18.0,27,17,11,20.38,20.24,12,2,23,0.00
2013-6-13,83.7,70.8,55.1,49.0,38.0,30.0,78,33,19,20.43,20.24,27,3,29,0.11
2013-6-14,80.6,67.1,52.4,49.0,42.7,38.0,70,43,27,20.36,20.21,11,2,18,0.00
2013-6-15,87.3,69.7,49.3,46.0,36.6,26.0,71,36,11,20.41,20.23,13,2,22,0.00
2013-6-16,85.8,71.4,57.8,43.0,36.0,31.0,43,29,16,20.41,20.25,11,2,21,0.00
2013-6-17,84.1,68.4,49.4,43.0,35.6,31.0,55,32,16,20.41,20.27,14,3,25,0.00
2013-6-18,83.6,69.1,52.6,48.0,41.6,34.0,67,40,18,20.41,20.21,14,4,21,0.00
2013-6-19,88.5,73.4,54.2,43.0,30.3,14.0,53,26,7,20.24,20.07,18,4,22,0.00
2013-6-20,87.4,80.0,66.3,26.0,16.3,10.0,19,9,7,20.20,20.13,12,6,21,0.00
2013-6-21,87.2,71.2,51.8,33.0,23.3,15.0,35,19,9,20.32,20.14,13,3,22,0.00
2013-6-22,85.5,71.6,52.9,25.0,19.6,12.0,24,14,9,20.27,20.11,16,4,25,0.00
2013-6-23,86.2,71.5,48.3,26.0,17.6,12.0,24,14,6,20.27,20.11,16,4,20,0.00
2013-6-24,84.5,71.3,54.9,25.0,17.4,7.0,20,13,7,20.25,20.13,20,4,22,0.00
2013-6-25,86.0,71.3,55.1,33.0,22.5,9.0,26,16,11,20.33,20.23,17,4,19,0.00
2013-6-26,95.1,75.8,52.9,36.0,31.1,26.0,37,21,10,20.41,20.25,9,2,14,0.00
2013-6-27,97.6,76.2,59.1,39.0,33.4,28.0,32,22,11,20.44,20.34,11,2,19,0.00
2013-6-28,88.5,73.4,61.3,49.0,43.8,37.0,47,36,20,20.48,20.41,17,4,30,0.00
2013-6-29,90.2,68.2,52.5,54.0,43.2,38.0,75,43,18,20.51,20.38,11,2,20,0.14
2013-6-30,87.0,65.5,51.0,54.0,44.6,40.0,88,51,22,20.48,20.32,21,2,27,0.61
2013-7-1,74.8,61.4,48.7,53.0,49.2,46.0,95,68,37,20.58,20.44,21,4,24,0.04
2013-7-2,81.6,63.2,50.8,54.0,48.8,42.0,93,65,25,20.59,20.35,10,2,23,0.04
2013-7-3,82.2,64.3,52.1,52.0,46.7,40.0,92,58,22,20.48,20.24,10,2,25,0.04
2013-7-4,85.4,69.1,51.0,46.0,42.4,39.0,73,42,22,20.33,20.21,18,3,23,0.00
2013-7-5,86.6,68.1,56.5,57.0,48.7,43.0,88,54,25,20.31,20.09,10,2,15,0.15
2013-7-6,84.5,65.3,55.3,56.0,51.6,48.0,85,64,33,20.37,20.24,10,2,21,0.02
2013-7-7,86.1,71.6,56.5,52.0,50.3,48.0,75,49,28,20.37,20.25,12,2,23,0.00
2013-7-8,84.9,69.8,62.3,55.0,49.9,46.0,65,51,26,20.44,20.34,9,1,26,0.00
2013-7-9,89.3,72.0,60.2,53.0,49.5,46.0,68,47,25,20.48,20.38,11,2,17,0.00
2013-7-10,88.2,69.5,59.0,59.0,49.5,45.0,69,50,27,20.48,20.38,11,2,22,0.13
2013-7-11,87.2,70.4,58.3,55.0,50.1,47.0,69,51,27,20.48,20.25,9,2,14,0.00
2013-7-12,86.3,69.7,59.0,56.0,51.0,48.0,81,53,29,20.36,20.24,9,2,15,0.07
2013-7-13,83.2,70.2,58.6,57.0,51.3,48.0,69,53,31,20.42,20.32,12,2,17,0.03
2013-7-14,85.3,67.5,55.6,57.0,51.3,48.0,87,59,29,20.42,20.26,18,3,27,0.10
2013-7-15,71.3,60.5,53.9,58.0,53.6,48.0,95,80,48,20.49,20.36,9,1,17,0.17
2013-7-16,73.9,60.7,50.4,51.0,47.2,44.0,91,64,38,20.60,20.47,16,2,20,0.00
2013-7-17,76.0,62.8,49.1,49.0,46.1,43.0,83,57,34,20.65,20.51,8,2,14,0.00
2013-7-18,82.1,66.6,50.6,52.0,48.8,45.0,88,56,32,20.61,20.36,9,2,14,0.00
2013-7-19,83.0,63.3,53.2,57.0,51.0,47.0,85,66,33,20.47,20.31,14,3,23,0.80
2013-7-20,83.7,65.6,53.4,59.0,52.0,47.0,88,64,33,20.45,20.24,21,2,25,0.14
2013-7-21,85.2,68.9,60.4,55.0,50.2,44.0,72,54,26,20.34,20.23,12,2,24,0.00
2013-7-22,91.8,71.6,55.3,49.0,45.0,38.0,70,43,17,20.37,20.24,6,1,14,0.00
2013-7-23,88.8,72.4,59.9,51.0,46.0,41.0,58,40,23,20.36,20.26,13,2,21,0.00
2013-7-24,87.5,72.9,60.9,51.0,46.9,40.0,68,43,21,20.45,20.27,13,3,24,0.00
2013-7-25,85.4,67.7,54.0,55.0,50.3,45.0,85,57,25,20.51,20.32,17,3,29,0.03
2013-7-26,84.6,65.3,53.1,54.0,51.1,44.0,91,64,29,20.60,20.44,12,2,17,0.02
2013-7-27,82.6,67.5,52.1,55.0,49.5,47.0,88,56,31,20.60,20.30,9,2,16,0.15
2013-7-28,76.6,62.9,55.6,58.0,55.4,53.0,95,78,47,20.41,20.23,9,1,18,0.26
2013-7-29,81.8,64.3,51.8,56.0,50.5,46.0,92,66,29,20.48,20.33,11,2,17,0.01
2013-7-30,85.8,68.9,51.4,50.0,45.3,39.0,85,48,19,20.58,20.47,8,1,16,0.00
2013-7-31,89.9,72.4,55.2,50.0,43.1,40.0,61,39,18,20.59,20.38,12,2,16,0.00
2013-8-1,80.4,67.4,56.4,56.0,50.5,46.0,92,58,33,20.48,20.34,10,2,18,0.03
2013-8-2,84.1,67.0,54.8,57.0,53.1,48.0,92,66,29,20.47,20.31,7,2,12,0.34
2013-8-3,82.4,68.2,54.9,58.0,53.8,49.0,93,65,35,20.47,20.34,8,1,14,0.06
2013-8-4,84.3,70.4,55.1,55.0,51.2,44.0,84,54,27,20.50,20.34,7,1,14,0.00
2013-8-5,84.9,67.8,55.2,56.0,52.1,47.0,93,62,28,20.52,20.30,8,1,18,0.05
2013-8-6,84.6,68.1,56.6,55.0,49.5,44.0,87,56,26,20.39,20.27,16,2,23,0.07
2013-8-7,76.3,60.2,51.1,58.0,52.0,48.0,93,76,39,20.40,20.31,11,1,20,0.50
2013-8-8,73.3,58.1,48.6,56.0,50.7,47.0,95,79,43,20.50,20.34,8,1,18,0.22
2013-8-9,76.6,60.4,45.6,52.0,46.1,38.0,95,65,25,20.58,20.49,8,1,15,0.01
2013-8-10,80.5,62.0,51.0,51.0,48.1,39.0,91,64,23,20.66,20.46,8,1,23,0.21
2013-8-11,79.7,62.5,47.4,51.0,46.6,39.0,92,62,24,20.61,20.46,5,1,11,0.00
2013-8-12,75.6,64.4,55.8,57.0,50.6,46.0,77,62,42,20.51,20.40,7,2,16,0.03
2013-8-13,79.3,63.9,49.6,54.0,48.5,44.0,93,62,30,20.54,20.44,8,1,18,0.21
2013-8-14,80.6,65.0,52.5,54.0,47.9,43.0,81,57,29,20.54,20.39,8,1,24,0.13
2013-8-15,85.1,68.3,51.5,50.0,42.2,32.0,75,43,15,20.52,20.38,11,2,17,0.00
2013-8-16,88.2,72.7,55.3,46.0,40.1,31.0,58,34,13,20.47,20.34,8,2,14,0.00
2013-8-17,88.0,72.6,57.9,45.0,40.9,37.0,52,34,17,20.47,20.30,10,2,15,0.00
2013-8-18,86.4,67.6,55.8,58.0,46.0,40.0,76,49,22,20.48,20.33,10,2,18,0.08
2013-8-19,85.8,67.8,54.2,52.0,48.2,45.0,78,52,26,20.49,20.38,10,1,19,0.00
2013-8-20,86.2,64.9,52.3,59.0,50.5,45.0,82,62,26,20.45,20.33,11,2,15,0.34
2013-8-21,83.7,68.5,55.5,55.0,50.7,48.0,80,55,31,20.48,20.35,12,1,17,0.01
2013-8-22,87.2,65.7,53.1,58.0,50.6,44.0,86,62,22,20.50,20.35,8,1,14,0.33
2013-8-23,81.1,66.3,51.4,50.0,46.6,43.0,79,52,29,20.49,20.32,9,1,15,0.00
2013-8-24,78.4,63.6,54.7,57.0,50.6,45.0,85,64,36,20.52,20.39,9,1,13,0.11
2013-8-25,77.7,63.4,56.4,59.0,53.6,50.0,89,72,40,20.58,20.48,14,1,23,0.20
2013-8-26,82.1,66.5,53.3,57.0,51.7,49.0,88,62,34,20.60,20.46,13,2,21,0.00
2013-8-27,85.2,68.3,54.4,53.0,48.8,44.0,76,53,30,20.50,20.33,7,1,15,0.00
2013-8-28,87.2,69.6,54.7,50.0,46.6,44.0,70,46,25,20.45,20.33,14,2,17,0.00
2013-8-29,86.8,69.2,56.5,51.0,48.3,46.0,72,50,28,20.50,20.38,8,1,12,0.00
2013-8-30,75.8,61.4,53.9,52.0,48.4,46.0,77,63,42,20.51,20.46,3,0,8,0.00
2013-8-31,89.6,71.8,54.5,57.0,44.8,-99.9,84,44,23,30.34,20.41,13,-13,17,0.30
2013-9-1,84.6,67.8,57.9,56.0,51.6,47.0,87,59,29,30.39,30.22,9,2,22,0.00
2013-9-2,84.3,67.3,56.7,55.0,50.9,48.0,76,58,29,30.40,30.25,10,1,23,0.01
2013-9-3,83.1,66.3,54.2,54.0,50.3,46.0,84,59,34,30.42,30.32,11,1,16,0.00
2013-9-4,87.5,69.5,53.3,51.0,46.2,38.0,80,47,23,30.48,30.32,8,1,15,0.00
2013-9-5,86.8,70.0,53.6,45.0,40.3,36.0,58,36,21,30.47,30.31,10,2,18,0.00
2013-9-6,87.3,70.3,55.3,43.0,39.1,35.0,52,34,20,30.44,30.24,9,2,19,0.00
2013-9-7,86.1,68.8,54.4,48.0,41.8,35.0,58,39,24,30.36,30.19,8,1,13,0.00
2013-9-8,82.5,68.1,52.0,51.0,43.9,39.0,64,43,28,30.33,30.14,12,3,20,0.00
2013-9-9,79.0,66.6,54.6,52.0,46.1,43.0,68,49,31,30.21,30.08,11,3,24,0.00
2013-9-10,72.9,60.2,52.5,57.0,48.4,41.0,93,68,38,30.38,30.20,10,1,17,0.17
2013-9-11,72.4,60.9,54.4,58.0,54.4,52.0,96,81,56,30.42,30.34,10,1,15,0.39
2013-9-12,62.3,58.0,52.1,59.0,54.8,49.0,94,89,79,30.45,30.36,4,0,5,0.29
2013-9-13,58.1,54.9,51.8,56.0,53.0,50.0,95,93,86,30.45,30.34,5,0,7,1.27
2013-9-14,66.6,55.9,49.3,55.0,51.4,47.0,95,85,63,30.42,30.27,5,1,13,0.47
2013-9-15,68.7,56.6,49.0,56.0,50.7,47.0,95,82,56,30.52,30.37,11,1,17,0.46
2013-9-16,71.4,59.1,49.3,53.0,50.3,46.0,92,74,50,30.56,30.40,12,1,16,0.00
2013-9-17,74.3,61.7,51.1,54.0,50.3,48.0,91,68,44,30.46,30.23,9,2,17,0.00
2013-9-18,69.9,59.2,53.9,58.0,51.4,47.0,93,76,52,30.27,30.18,9,1,16,0.12
2013-9-19,61.6,53.5,48.1,52.0,46.9,41.0,96,80,52,30.36,30.26,6,1,13,0.15
2013-9-20,75.3,60.6,48.2,49.0,43.4,38.0,77,56,28,30.42,30.27,6,1,16,0.00
2013-9-21,76.3,60.3,47.6,54.0,46.6,40.0,94,65,28,30.40,30.21,9,1,13,0.00
2013-9-22,76.4,58.2,42.7,51.0,44.8,35.0,92,66,24,30.24,29.89,13,2,20,1.10
2013-9-23,65.5,50.7,39.2,42.0,37.5,34.0,90,63,36,30.54,30.02,12,3,21,0.00
2013-9-24,71.9,52.6,37.1,39.0,34.3,31.0,82,54,25,30.64,30.42,4,0,8,0.00
2013-9-25,72.7,59.2,44.1,42.0,36.7,27.0,69,45,30,30.43,30.07,11,3,20,0.00
2013-9-26,72.5,60.6,46.8,39.0,35.3,30.0,65,42,21,30.15,30.05,18,4,20,0.00
2013-9-27,65.6,52.7,34.8,47.0,38.4,32.0,90,62,37,30.41,29.99,17,3,24,0.14
2013-9-28,63.3,44.7,29.1,32.0,27.8,24.0,88,56,25,30.76,30.42,6,1,10,0.00
2013-9-29,69.3,52.1,35.8,32.0,26.5,23.0,70,40,21,30.73,30.46,14,2,20,0.00
2013-9-30,75.4,57.0,40.2,35.0,27.7,22.0,58,34,21,30.50,30.26,9,2,14,0.00
2013-10-1,77.1,60.1,42.1,39.0,32.3,25.0,63,37,24,30.37,30.23,8,2,12,0.00
2013-10-2,72.5,57.2,40.0,33.0,26.1,20.0,55,32,16,30.37,30.23,10,2,16,0.00
2013-10-3,70.0,56.5,39.7,35.0,26.1,20.0,48,33,19,30.28,30.07,13,3,18,0.00
2013-10-4,56.6,47.6,38.8,28.0,17.1,7.0,51,32,16,30.54,30.11,12,4,22,0.00
2013-10-5,55.8,41.0,25.1,20.0,16.7,11.0,64,39,23,30.80,30.53,10,2,13,0.00
2013-10-6,68.3,47.1,28.8,24.0,18.8,15.0,65,36,15,30.85,30.68,5,0,12,0.00
2013-10-7,71.1,51.7,33.3,28.0,20.5,14.0,48,31,17,30.73,30.48,9,1,13,0.00
2013-10-8,69.8,54.7,38.7,31.0,25.5,16.0,51,33,22,30.52,30.24,11,2,16,0.00
2013-10-9,69.3,55.0,42.0,33.0,28.1,23.0,56,38,18,30.30,30.18,14,2,21,0.00
2013-10-10,64.8,47.5,34.4,42.0,34.9,28.0,94,65,29,30.34,29.95,21,5,34,0.41
2013-10-11,51.6,40.3,30.8,35.0,30.0,26.0,86,68,49,30.62,30.34,12,2,18,0.00
2013-10-12,60.5,43.5,27.9,34.0,29.5,25.0,91,62,27,30.71,30.58,9,1,21,0.00
2013-10-13,68.9,51.8,38.0,46.0,36.5,31.0,87,59,31,30.66,30.36,10,2,21,0.02
2013-10-14,56.3,47.4,36.2,46.0,29.7,19.0,93,56,25,30.52,30.30,19,5,24,0.03
2013-10-15,58.2,41.7,27.0,34.0,25.5,19.0,90,55,33,30.62,30.47,11,2,17,0.10
2013-10-16,48.3,36.6,31.9,37.0,29.7,22.0,95,78,42,30.68,30.55,10,1,14,0.38
2013-10-17,55.3,39.2,26.2,32.0,23.5,19.0,87,58,26,30.72,30.49,9,1,18,0.00
2013-10-18,51.7,38.8,28.2,26.0,19.3,16.0,67,47,25,30.70,30.49,9,1,13,0.00
2013-10-19,41.8,29.6,24.3,22.0,16.4,-99.9,82,63,40,30.76,0.00,3,-22,8,0.00
2013-10-20,60.9,45.2,29.4,27.0,22.0,18.0,68,43,23,30.31,30.03,8,1,16,0.00
2013-10-21,56.6,44.3,32.8,32.0,27.4,23.0,81,54,28,30.30,30.00,10,1,18,0.00
2013-10-22,62.7,44.4,29.8,28.0,23.0,18.0,76,47,21,30.42,30.29,4,1,10,0.00
2013-10-23,67.1,47.7,31.3,27.0,22.2,18.0,65,40,16,30.34,30.18,7,1,10,0.00
2013-10-24,66.9,51.7,34.6,30.0,25.7,22.0,60,39,20,30.28,30.15,7,1,12,0.00
2013-10-25,58.4,47.1,39.3,45.0,39.3,29.0,93,76,46,30.30,30.13,9,2,17,0.48
2013-10-26,59.6,44.5,34.4,41.0,35.6,32.0,94,74,41,30.42,30.26,12,1,16,0.01
2013-10-27,59.0,45.6,33.4,39.0,33.5,29.0,87,65,39,30.38,30.02,11,1,13,0.00
2013-10-28,59.4,46.8,37.1,38.0,30.4,23.0,81,56,29,30.04,29.95,10,2,17,0.00
2013-10-29,59.5,51.3,37.5,36.0,25.1,21.0,84,38,26,30.06,29.86,16,6,27,0.02
2013-10-30,49.6,37.6,30.9,37.0,32.4,29.0,94,83,51,30.04,29.88,12,2,22,0.23
2013-10-31,42.8,33.4,25.1,33.0,27.3,22.0,93,79,58,30.29,30.05,10,2,16,0.40
2013-11-1,50.9,36.0,23.5,28.0,24.6,20.0,89,66,36,30.38,30.18,7,1,12,0.00
2013-11-2,57.6,39.6,27.5,31.0,26.4,23.0,82,62,34,30.34,30.03,5,1,9,0.00
2013-11-3,52.7,42.5,34.0,35.0,28.4,23.0,69,58,42,30.02,29.69,12,2,16,0.00
2013-11-4,56.9,43.8,31.1,37.0,26.7,20.0,93,55,27,29.86,29.71,13,3,22,0.38
2013-11-5,42.2,34.9,26.2,37.0,28.2,18.0,95,78,51,30.21,29.69,13,2,18,0.49
2013-11-6,45.6,31.6,19.0,23.0,19.2,15.0,84,63,36,30.51,30.22,8,1,10,0.00
2013-11-7,54.5,36.8,24.4,28.0,23.1,20.0,84,60,33,30.55,30.28,5,0,7,0.00
2013-11-8,57.0,41.5,30.8,28.0,21.7,18.0,62,47,28,30.28,30.00,8,1,15,0.00
2013-11-9,61.9,43.1,30.3,29.0,22.9,20.0,67,47,24,30.18,30.08,4,0,7,0.00
2013-11-10,62.3,43.4,30.0,28.0,23.2,19.0,69,47,24,30.27,30.14,3,0,5,0.00
2013-11-11,61.4,43.5,30.2,28.0,21.7,17.0,70,45,18,30.35,30.20,10,1,11,0.00
2013-11-12,54.8,39.5,27.4,30.0,24.1,19.0,83,57,33,30.51,30.34,8,0,11,0.00
2013-11-13,55.8,37.7,25.7,31.0,27.1,22.0,89,69,30,30.50,30.12,2,0,7,0.00
2013-11-14,53.3,38.0,27.6,34.0,27.6,22.0,91,68,37,30.12,29.93,5,1,8,0.00
2013-11-15,53.8,39.6,29.4,37.0,27.6,19.0,88,65,32,29.93,29.62,14,3,21,0.09
2013-11-16,45.7,41.2,37.2,36.0,32.2,28.0,90,71,55,29.67,29.54,17,6,26,0.07
2013-11-17,51.2,41.5,32.7,31.0,27.9,24.0,72,59,43,30.11,29.66,19,4,23,0.00
2013-11-18,48.1,35.5,24.5,31.0,22.6,19.0,82,61,43,30.23,30.11,4,0,5,0.00
2013-11-19,54.7,40.2,26.7,33.0,26.3,20.0,78,59,39,30.18,29.86,9,1,15,0.00
2013-11-20,48.1,39.1,32.6,35.0,29.3,24.0,93,69,48,29.86,29.75,5,1,12,0.05
2013-11-21,47.9,39.8,34.4,39.0,36.2,33.0,95,87,65,30.09,29.86,7,0,12,0.21
2013-11-22,37.4,30.7,27.0,35.0,29.1,26.0,94,93,91,30.40,30.08,3,0,5,0.31
2013-11-23,32.9,28.4,23.9,31.0,26.8,22.0,95,93,90,30.48,30.34,6,1,9,0.11
2013-11-24,23.7,19.4,14.5,22.0,17.2,12.0,100,91,86,30.40,30.23,3,0,6,0.00
2013-11-25,35.3,23.9,15.7,30.0,20.3,13.0,92,86,73,30.48,30.23,6,1,9,0.43
2013-11-26,37.2,24.9,14.8,27.0,19.8,12.0,92,81,62,30.60,30.47,4,1,6,0.12
2013-11-27,34.4,19.7,8.9,24.0,15.6,6.0,91,84,67,30.56,30.39,2,0,5,0.00
2013-11-28,40.5,22.0,8.0,28.0,16.7,5.0,92,81,57,30.55,30.46,4,0,7,0.01
2013-11-29,46.0,26.3,14.0,30.0,20.2,11.0,93,79,49,30.54,30.39,3,0,5,0.01
2013-11-30,42.8,24.3,13.2,27.0,18.6,10.0,91,80,54,30.54,30.39,2,0,5,0.00
2013-12-1,42.0,26.2,16.4,27.0,20.3,14.0,92,79,54,30.49,30.23,3,0,6,0.00
2013-12-2,50.8,31.6,20.0,29.0,22.3,17.0,91,71,40,30.24,29.79,4,0,6,0.01
2013-12-3,51.2,40.1,28.5,26.0,21.8,20.0,71,50,31,29.80,29.44,12,3,21,0.00
2013-12-4,43.6,37.6,26.7,27.0,21.9,19.0,78,55,39,29.65,29.30,21,7,30,0.00
2013-12-5,27.2,21.5,8.6,23.0,17.6,5.0,90,85,74,29.95,29.64,6,0,13,0.00
2013-12-6,28.4,17.9,12.7,16.0,10.0,6.0,91,73,44,30.23,29.94,13,1,14,0.02
2013-12-7,33.4,20.3,6.4,22.0,13.2,2.0,88,74,56,30.21,29.82,14,3,22,0.02
2013-12-8,27.7,20.8,11.8,20.0,8.5,-3.0,88,61,33,30.02,29.64,21,6,26,0.00
2013-12-9,22.2,12.2,-2.0,12.0,1.9,-8.0,86,66,37,30.62,30.02,14,2,20,0.00
2013-12-10,30.7,10.7,-8.3,7.0,-1.2,-14.0,83,61,35,30.70,30.54,5,0,6,0.00
2013-12-11,34.2,13.5,-1.7,10.0,3.1,-7.0,85,66,37,30.77,30.57,3,0,5,0.01
2013-12-12,34.4,16.4,1.9,15.0,7.1,-2.0,87,69,43,30.78,30.31,2,0,6,0.00
2013-12-13,39.8,22.3,11.0,22.0,14.8,6.0,90,74,49,30.31,30.03,3,0,6,0.00
2013-12-14,37.8,21.9,10.9,17.0,12.2,7.0,90,69,35,30.49,30.17,5,1,8,0.00
2013-12-15,43.3,23.2,9.2,20.0,13.2,5.0,87,68,38,30.51,30.40,5,0,10,0.00
2013-12-16,46.5,27.6,14.6,22.0,16.2,10.0,85,65,36,30.46,30.34,3,0,5,0.00
2013-12-17,45.4,27.7,15.1,22.0,15.9,10.0,81,63,38,30.49,30.34,9,0,9,0.00
2013-12-18,46.6,29.7,15.2,24.0,16.1,10.0,83,60,32,30.34,29.91,3,0,6,0.00
2013-12-19,48.5,35.3,23.8,24.0,19.3,13.0,67,54,37,29.91,29.57,7,1,14,0.00
2013-12-20,44.6,32.6,26.3,23.0,20.0,18.0,77,61,39,29.67,29.53,4,0,8,0.00
2013-12-21,33.4,25.7,16.8,23.0,19.4,14.0,90,78,59,29.79,29.45,8,1,15,0.00
2013-12-22,33.1,23.9,15.4,20.0,15.1,10.0,88,71,42,30.29,29.80,6,1,12,0.02
2013-12-23,38.5,21.9,9.1,16.0,10.9,5.0,89,65,35,30.52,30.28,4,0,7,0.00
2013-12-24,43.2,24.8,10.0,23.0,14.5,5.0,85,67,44,30.49,30.22,5,0,12,0.00
2013-12-25,38.4,22.9,10.3,15.0,9.4,4.0,83,59,30,30.48,30.32,6,1,11,0.00
2013-12-26,40.7,21.1,7.9,13.0,7.5,1.0,80,58,32,30.52,30.37,4,0,10,0.00
2013-12-27,44.9,24.5,11.9,17.0,11.4,6.0,80,61,30,30.51,30.29,3,0,5,0.00
2013-12-28,42.8,23.6,10.3,18.0,13.4,6.0,92,68,36,30.29,29.97,2,0,5,0.00
2013-12-29,34.0,24.8,18.8,25.0,20.1,14.0,90,82,66,30.19,29.99,3,0,10,0.06
2013-12-30,37.2,21.1,10.8,21.0,14.6,8.0,92,78,49,30.44,30.18,2,0,7,0.01
2013-12-31,44.2,25.0,10.6,21.0,14.8,7.0,88,68,39,30.44,30.18,9,1,13,0.00
2014-1-1,43.4,29.9,19.2,22.0,16.4,11.0,77,59,35,30.26,30.05,9,1,13,0.00
2014-1-2,44.5,25.7,13.1,18.0,12.3,7.0,81,60,29,30.38,30.25,3,0,5,0.00